N955PM KTEB-KASH

Flight info

Callsign N955PM
Flight time 0h 34m
Altitude 17000
Route BREZY V39 CMK MERIT V99 HFD CLOWW
Aircraft CL60/M-SBDE1E2E3FGHIJ1J4J5J7M3RWXYZ/LB1V1D1

Departure

Time 2026-04-29 01:51
Airport Teterboro Airport (KTEB)

Arrival

Time 2026-04-29 02:25
Airport Nashua Airport / Boire Field (KASH)
Time Latitude Longitude Altitude Speed Heading
2026-04-29 01:37 40.85126 -74.06795 14 ft 0 kts 38°
2026-04-29 01:45 40.85122 -74.06726 14 ft 19 kts 120°
2026-04-29 01:45 40.85085 -74.06657 14 ft 8 kts 93°
2026-04-29 01:46 40.85130 -74.06571 14 ft 16 kts 50°
2026-04-29 01:46 40.85236 -74.06415 14 ft 27 kts 47°
2026-04-29 01:46 40.85380 -74.06206 14 ft 29 kts 47°
2026-04-29 01:46 40.85531 -74.06059 14 ft 28 kts
2026-04-29 01:47 40.85682 -74.06048 14 ft 12 kts
2026-04-29 01:47 40.85759 -74.06036 14 ft 12 kts 17°
2026-04-29 01:47 40.85778 -74.05926 14 ft 14 kts 99°
2026-04-29 01:47 40.85754 -74.05899 14 ft 0 kts 182°
2026-04-29 01:50 40.85744 -74.05900 14 ft 17 kts 182°
2026-04-29 01:50 40.85222 -74.05938 15 ft 126 kts 183°
2026-04-29 01:51 40.84148 -74.06018 409 ft 174 kts 184°
2026-04-29 01:51 40.82802 -74.06123 1161 ft 211 kts 184°
2026-04-29 01:51 40.81277 -74.06691 1780 ft 247 kts 213°
2026-04-29 01:51 40.80154 -74.08423 1984 ft 252 kts 248°
2026-04-29 01:52 40.79879 -74.10699 2008 ft 253 kts 267°
2026-04-29 01:52 40.79840 -74.13026 2001 ft 253 kts 268°
2026-04-29 01:52 40.79797 -74.15363 2004 ft 256 kts 267°
2026-04-29 01:52 40.79760 -74.17763 2260 ft 276 kts 268°
2026-04-29 01:53 40.79769 -74.20298 3358 ft 279 kts 276°
2026-04-29 01:53 40.80429 -74.22685 3887 ft 278 kts 303°
2026-04-29 01:53 40.81890 -74.24354 4082 ft 287 kts 335°
2026-04-29 01:53 40.83874 -74.24737 5111 ft 301 kts
2026-04-29 01:54 40.85867 -74.23874 6364 ft 304 kts 26°
2026-04-29 01:54 40.87620 -74.22566 8077 ft 296 kts 36°
2026-04-29 01:54 40.89066 -74.20599 9238 ft 302 kts 47°
2026-04-29 01:54 40.90402 -74.18458 9785 ft 300 kts 48°
2026-04-29 01:55 40.91703 -74.16272 10517 ft 314 kts 53°
2026-04-29 01:55 40.92863 -74.13808 11441 ft 320 kts 55°
2026-04-29 01:55 40.94077 -74.11167 11812 ft 351 kts 55°
2026-04-29 01:55 40.95410 -74.08275 11898 ft 382 kts 56°
2026-04-29 01:56 40.96817 -74.05210 11906 ft 393 kts 55°
2026-04-29 01:56 40.98236 -74.02107 11909 ft 392 kts 56°
2026-04-29 01:56 40.99660 -73.98994 11947 ft 401 kts 55°
2026-04-29 01:56 41.01119 -73.95808 12673 ft 410 kts 55°
2026-04-29 01:57 41.02603 -73.92559 13758 ft 409 kts 54°
2026-04-29 01:57 41.04073 -73.89339 14734 ft 411 kts 55°
2026-04-29 01:57 41.05564 -73.86073 15559 ft 418 kts 55°
2026-04-29 01:57 41.07079 -73.82755 16347 ft 424 kts 55°
2026-04-29 01:58 41.08616 -73.79384 17082 ft 431 kts 55°
2026-04-29 01:58 41.10198 -73.75912 17709 ft 440 kts 55°
2026-04-29 01:58 41.11812 -73.72366 17966 ft 445 kts 55°
2026-04-29 01:58 41.13415 -73.68836 18015 ft 444 kts 55°
2026-04-29 01:59 41.14993 -73.65356 18012 ft 442 kts 55°
2026-04-29 01:59 41.16574 -73.61869 18008 ft 440 kts 55°
2026-04-29 01:59 41.18158 -73.58369 18012 ft 439 kts 55°
2026-04-29 01:59 41.18662 -73.57256 18035 ft 439 kts 55°
2026-04-29 02:00 41.20236 -73.53793 18110 ft 447 kts 55°
2026-04-29 02:00 41.21868 -73.50183 18124 ft 453 kts 55°
2026-04-29 02:00 41.23493 -73.46581 18125 ft 453 kts 56°
2026-04-29 02:00 41.25092 -73.43030 18123 ft 452 kts 55°
2026-04-29 02:01 41.26719 -73.39414 18123 ft 451 kts 56°
2026-04-29 02:01 41.28319 -73.35854 18130 ft 451 kts 55°
2026-04-29 02:01 41.29935 -73.32256 18127 ft 451 kts 56°
2026-04-29 02:01 41.31540 -73.28679 18126 ft 452 kts 56°
2026-04-29 02:02 41.33163 -73.25091 18197 ft 450 kts 54°
2026-04-29 02:02 41.34872 -73.21495 18288 ft 452 kts 55°
2026-04-29 02:02 41.36481 -73.17902 18179 ft 455 kts 56°
2026-04-29 02:02 41.38139 -73.14339 18139 ft 449 kts 51°
2026-04-29 02:03 41.40206 -73.11247 18132 ft 442 kts 40°
2026-04-29 02:03 41.42461 -73.08461 18127 ft 442 kts 39°
2026-04-29 02:03 41.44708 -73.05681 18126 ft 442 kts 39°
2026-04-29 02:03 41.46914 -73.02828 18131 ft 445 kts 45°
2026-04-29 02:04 41.48682 -72.99392 18136 ft 451 kts 59°
2026-04-29 02:04 41.50028 -72.95599 18117 ft 453 kts 62°
2026-04-29 02:04 41.51355 -72.91779 18130 ft 453 kts 62°
2026-04-29 02:04 41.52686 -72.87952 18129 ft 453 kts 62°
2026-04-29 02:05 41.54012 -72.84135 18130 ft 452 kts 62°
2026-04-29 02:05 41.55336 -72.80316 18133 ft 453 kts 62°
2026-04-29 02:05 41.56654 -72.76508 18132 ft 453 kts 62°
2026-04-29 02:05 41.57965 -72.72716 18135 ft 453 kts 62°
2026-04-29 02:06 41.59279 -72.68906 18138 ft 452 kts 62°
2026-04-29 02:06 41.60601 -72.65070 18132 ft 453 kts 62°
2026-04-29 02:06 41.61916 -72.61249 18132 ft 453 kts 62°
2026-04-29 02:06 41.63438 -72.57546 18137 ft 448 kts 51°
2026-04-29 02:07 41.65502 -72.54537 18140 ft 442 kts 37°
2026-04-29 02:07 41.68078 -72.52282 18125 ft 437 kts 24°
2026-04-29 02:07 41.70818 -72.50558 18126 ft 436 kts 21°
2026-04-29 02:07 41.73592 -72.48834 18136 ft 437 kts 21°
2026-04-29 02:08 41.76338 -72.47121 18142 ft 437 kts 21°
2026-04-29 02:08 41.79084 -72.45405 18140 ft 437 kts 22°
2026-04-29 02:08 41.81847 -72.43677 18140 ft 438 kts 21°
2026-04-29 02:08 41.84624 -72.41937 18138 ft 438 kts 21°
2026-04-29 02:09 41.87380 -72.40208 18144 ft 438 kts 21°
2026-04-29 02:09 41.90164 -72.38460 18138 ft 438 kts 21°
2026-04-29 02:09 41.92899 -72.36742 18140 ft 438 kts 21°
2026-04-29 02:09 41.95692 -72.34984 18123 ft 438 kts 22°
2026-04-29 02:10 41.98455 -72.33244 18131 ft 438 kts 22°
2026-04-29 02:10 42.01193 -72.31517 18151 ft 439 kts 22°
2026-04-29 02:10 42.03974 -72.29761 18046 ft 441 kts 22°
2026-04-29 02:10 42.06738 -72.28016 17774 ft 440 kts 22°
2026-04-29 02:11 42.09517 -72.26278 17557 ft 436 kts 22°
2026-04-29 02:11 42.12278 -72.24555 17306 ft 434 kts 22°
2026-04-29 02:11 42.15056 -72.22820 17055 ft 433 kts 22°
2026-04-29 02:11 42.17709 -72.21162 16836 ft 431 kts 23°
2026-04-29 02:12 42.20423 -72.19461 16592 ft 430 kts 23°
2026-04-29 02:12 42.23157 -72.17747 16309 ft 428 kts 23°
2026-04-29 02:12 42.25847 -72.16058 16103 ft 426 kts 23°
2026-04-29 02:12 42.28555 -72.14356 15826 ft 425 kts 23°
2026-04-29 02:13 42.31209 -72.12686 15577 ft 423 kts 23°
2026-04-29 02:13 42.33897 -72.10992 15329 ft 421 kts 24°
2026-04-29 02:13 42.36549 -72.09319 15015 ft 421 kts 24°
2026-04-29 02:13 42.39206 -72.07642 14485 ft 420 kts 24°
2026-04-29 02:14 42.41850 -72.05971 13921 ft 414 kts 24°
2026-04-29 02:14 42.44426 -72.04341 13386 ft 410 kts 24°
2026-04-29 02:14 42.47002 -72.02710 12869 ft 408 kts 25°
2026-04-29 02:14 42.49576 -72.01078 12284 ft 404 kts 24°
2026-04-29 02:15 42.52101 -71.99475 11764 ft 402 kts 24°
2026-04-29 02:15 42.54632 -71.97868 11271 ft 399 kts 24°
2026-04-29 02:15 42.57143 -71.96272 11031 ft 397 kts 24°
2026-04-29 02:15 42.59647 -71.94679 11026 ft 397 kts 24°
2026-04-29 02:16 42.62142 -71.93090 11019 ft 396 kts 25°
2026-04-29 02:16 42.64643 -71.91495 11025 ft 398 kts 24°
2026-04-29 02:16 42.67157 -71.89890 11055 ft 399 kts 24°
2026-04-29 02:16 42.69680 -71.88281 11032 ft 401 kts 24°
2026-04-29 02:17 42.72332 -71.87100 10366 ft 402 kts
2026-04-29 02:17 42.75064 -71.87196 9525 ft 389 kts 348°
2026-04-29 02:17 42.77662 -71.87969 8658 ft 379 kts 346°
2026-04-29 02:17 42.80180 -71.88761 7872 ft 368 kts 346°
2026-04-29 02:18 42.82522 -71.89493 8053 ft 321 kts 346°
2026-04-29 02:18 42.84700 -71.90199 6754 ft 328 kts 345°
2026-04-29 02:18 42.86869 -71.90893 5893 ft 319 kts 346°
2026-04-29 02:18 42.89039 -71.91401 5107 ft 309 kts
2026-04-29 02:19 42.91056 -71.90774 4372 ft 296 kts 29°
2026-04-29 02:19 42.92506 -71.88970 3971 ft 272 kts 61°
2026-04-29 02:19 42.92980 -71.86629 3872 ft 246 kts 94°
2026-04-29 02:19 42.92656 -71.84412 3863 ft 234 kts 105°
2026-04-29 02:20 42.92217 -71.82294 3847 ft 230 kts 106°
2026-04-29 02:20 42.91731 -71.80228 3842 ft 229 kts 111°
2026-04-29 02:20 42.91022 -71.78280 3845 ft 229 kts 120°
2026-04-29 02:20 42.90129 -71.76459 3843 ft 230 kts 124°
2026-04-29 02:21 42.89219 -71.74667 3841 ft 230 kts 122°
2026-04-29 02:21 42.88337 -71.72839 3804 ft 231 kts 121°
2026-04-29 02:21 42.87465 -71.70985 3579 ft 230 kts 121°
2026-04-29 02:21 42.86604 -71.69151 3204 ft 229 kts 121°
2026-04-29 02:22 42.85745 -71.67321 2814 ft 229 kts 121°
2026-04-29 02:22 42.84892 -71.65509 2497 ft 225 kts 121°
2026-04-29 02:22 42.84081 -71.63786 2174 ft 208 kts 121°
2026-04-29 02:22 42.83344 -71.62228 1948 ft 178 kts 120°
2026-04-29 02:23 42.82730 -71.60933 1739 ft 149 kts 121°
2026-04-29 02:23 42.82216 -71.59848 1560 ft 127 kts 120°
2026-04-29 02:23 42.81754 -71.58864 1337 ft 121 kts 120°
2026-04-29 02:23 42.81306 -71.57905 1138 ft 119 kts 120°
2026-04-29 02:24 42.80859 -71.56933 964 ft 127 kts 118°
2026-04-29 02:24 42.80422 -71.55970 828 ft 121 kts 119°
2026-04-29 02:24 42.79959 -71.54987 692 ft 118 kts 121°
2026-04-29 02:25 42.79028 -71.53061 360 ft 119 kts 121°
2026-04-29 02:25 42.78587 -71.52135 207 ft 109 kts 121°
2026-04-29 02:25 42.78240 -71.51408 198 ft 65 kts 124°
2026-04-29 02:25 42.78099 -71.51131 196 ft 13 kts 161°
2026-04-29 02:26 42.78008 -71.51192 196 ft 7 kts 212°
2026-04-29 02:26 42.78005 -71.51194 196 ft 0 kts 212°
2026-04-29 02:26 42.77989 -71.51212 196 ft 8 kts 236°
2026-04-29 02:26 42.78022 -71.51324 197 ft 17 kts 302°
2026-04-29 02:27 42.78103 -71.51495 198 ft 24 kts 302°
2026-04-29 02:27 42.78207 -71.51718 200 ft 30 kts 302°
2026-04-29 02:27 42.78318 -71.51951 202 ft 20 kts 302°
2026-04-29 02:27 42.78308 -71.52061 203 ft 14 kts 211°
2026-04-29 02:28 42.78243 -71.52016 203 ft 16 kts 86°
2026-04-29 02:28 42.78306 -71.52023 203 ft 11 kts 245°
2026-04-29 02:28 42.78289 -71.52039 203 ft 0 kts 208°